Location: Mountain View
(37.3861°N, 122.0839°W)
Time: 04:02:57
(UTC-08:00)

Hubble Space Telescope - Visible Passes

Search period start: 15 December 2017 00:00
Search period end: 25 December 2017 00:00
Orbit: 537 x 541 km, 28.5° (Epoch: 14 December)

Date Brightness Start Highest point End Pass type
(mag) Time Alt. Az. Time Alt. Az. Time Alt. Az.
15 Dec 3.2 18:46:47 10° SW 18:49:18 16° SSW 18:51:09 12° SSE visible
16 Dec 3.4 18:36:51 10° SW 18:38:57 14° SSW 18:41:02 10° SSE visible
17 Dec 3.6 18:27:12 10° SW 18:28:35 11° SSW 18:29:58 10° S visible
